Time,TemperatureF,DewpointF,PressureIn,WindDirection,WindDirectionDegrees,WindSpeedMPH,WindSpeedGustMPH,Humidity,HourlyPrecipIn,Conditions,Clouds,dailyrainin,SoftwareType,DateUTC
2013-04-03 00:00:00,23.7,11.5,30.33,WNW,284,0.0,0.0,59,0.00,CLR,,0.00,WeatherDisplay:10.37,2013-04-03 05:00:00,
2013-04-03 00:05:00,23.5,11.3,30.33,West,270,0.0,0.0,59,0.00,CLR,,0.00,WeatherDisplay:10.37,2013-04-03 05:05:00,
2013-04-03 00:10:00,23.5,11.3,30.33,West,270,0.0,0.0,59,0.00,CLR,,0.00,WeatherDisplay:10.37,2013-04-03 05:10:00,
2013-04-03 00:20:00,23.5,11.7,30.34,West,275,0.0,0.0,60,0.00,CLR,,0.00,WeatherDisplay:10.37,2013-04-03 05:20:00,
2013-04-03 00:25:00,23.5,11.7,30.33,West,274,0.0,0.0,60,0.00,CLR,,0.00,WeatherDisplay:10.37,2013-04-03 05:25:00,
2013-04-03 00:30:00,23.4,11.5,30.34,West,270,0.0,0.0,60,0.00,CLR,,0.00,WeatherDisplay:10.37,2013-04-03 05:30:00,
2013-04-03 00:35:00,23.5,11.7,30.34,West,276,0.0,0.0,60,0.00,CLR,,0.00,WeatherDisplay:10.37,2013-04-03 05:35:00,
2013-04-03 00:40:00,23.5,11.7,30.34,WNW,287,0.0,0.0,60,0.00,CLR,,0.00,WeatherDisplay:10.37,2013-04-03 05:40:00,
2013-04-03 00:45:00,23.5,11.7,30.34,WNW,292,0.0,0.0,60,0.00,CLR,,0.00,WeatherDisplay:10.37,2013-04-03 05:45:00,
2013-04-03 00:50:00,23.4,11.5,30.33,West,281,0.0,0.0,60,0.00,CLR,,0.00,WeatherDisplay:10.37,2013-04-03 05:50:00,
2013-04-03 00:55:00,22.8,11.0,30.34,West,270,0.0,0.0,60,0.00,CLR,,0.00,WeatherDisplay:10.37,2013-04-03 05:55:00,
2013-04-03 01:00:00,22.6,11.2,30.34,West,270,0.0,0.0,61,0.00,CLR,,0.00,WeatherDisplay:10.37,2013-04-03 06:00:00,
2013-04-03 01:05:00,22.5,11.0,30.34,West,270,0.0,0.0,61,0.00,CLR,,0.00,WeatherDisplay:10.37,2013-04-03 06:05:00,
2013-04-03 01:10:00,22.3,11.2,30.34,West,270,0.0,0.0,62,0.00,CLR,,0.00,WeatherDisplay:10.37,2013-04-03 06:10:00,
2013-04-03 01:20:00,21.7,11.0,30.34,West,270,0.0,0.0,63,0.00,CLR,,0.00,WeatherDisplay:10.37,2013-04-03 06:20:00,
2013-04-03 01:25:00,21.2,10.6,30.34,West,270,0.0,0.0,63,0.00,CLR,,0.00,WeatherDisplay:10.37,2013-04-03 06:25:00,
2013-04-03 01:30:00,20.8,10.6,30.34,West,270,0.0,0.0,64,0.00,CLR,,0.00,WeatherDisplay:10.37,2013-04-03 06:30:00,
2013-04-03 01:35:00,20.6,10.4,30.34,West,270,0.0,0.0,64,0.00,CLR,,0.00,WeatherDisplay:10.37,2013-04-03 06:35:00,
2013-04-03 01:40:00,20.5,10.6,30.34,West,270,0.0,0.0,65,0.00,CLR,,0.00,WeatherDisplay:10.37,2013-04-03 06:40:00,
2013-04-03 01:45:00,20.3,10.7,30.34,West,270,0.0,0.0,66,0.00,CLR,,0.00,WeatherDisplay:10.37,2013-04-03 06:45:00,
2013-04-03 01:50:00,20.1,10.6,30.34,West,270,0.0,0.0,66,0.00,CLR,,0.00,WeatherDisplay:10.37,2013-04-03 06:50:00,
2013-04-03 01:55:00,20.1,10.6,30.34,West,270,0.0,0.0,66,0.00,CLR,,0.00,WeatherDisplay:10.37,2013-04-03 06:55:00,
2013-04-03 02:00:00,19.9,10.7,30.34,West,270,0.0,0.0,67,0.00,CLR,,0.00,WeatherDisplay:10.37,2013-04-03 07:00:00,
2013-04-03 02:05:00,19.9,10.7,30.34,West,270,0.0,0.0,67,0.00,CLR,,0.00,WeatherDisplay:10.37,2013-04-03 07:05:00,
2013-04-03 02:10:00,19.6,10.4,30.34,West,270,0.0,0.0,67,0.00,CLR,,0.00,WeatherDisplay:10.37,2013-04-03 07:10:00,
2013-04-03 02:15:00,19.2,10.4,30.34,West,270,0.0,0.0,68,0.00,CLR,,0.00,WeatherDisplay:10.37,2013-04-03 07:15:00,
2013-04-03 02:20:00,18.8,10.0,30.35,West,270,0.0,0.0,68,0.00,CLR,,0.00,WeatherDisplay:10.37,2013-04-03 07:20:00,
2013-04-03 02:25:00,18.4,9.6,30.35,West,270,0.0,0.0,68,0.00,CLR,,0.00,WeatherDisplay:10.37,2013-04-03 07:25:00,
2013-04-03 02:30:00,18.1,9.3,30.35,West,270,0.0,0.0,68,0.00,CLR,,0.00,WeatherDisplay:10.37,2013-04-03 07:30:00,
2013-04-03 02:35:00,18.1,9.3,30.35,West,270,0.0,0.0,68,0.00,CLR,,0.00,WeatherDisplay:10.37,2013-04-03 07:35:00,
2013-04-03 02:40:00,18.1,9.6,30.35,West,270,0.0,0.0,69,0.00,CLR,,0.00,WeatherDisplay:10.37,2013-04-03 07:40:00,
2013-04-03 02:45:00,17.8,9.3,30.35,West,270,0.0,0.0,69,0.00,CLR,,0.00,WeatherDisplay:10.37,2013-04-03 07:45:00,
2013-04-03 02:50:00,17.7,9.3,30.34,West,270,0.0,0.0,69,0.00,CLR,,0.00,WeatherDisplay:10.37,2013-04-03 07:50:00,
2013-04-03 02:55:00,17.4,9.0,30.34,West,270,0.0,0.0,69,0.00,CLR,,0.00,WeatherDisplay:10.37,2013-04-03 07:55:00,
2013-04-03 03:00:00,16.9,8.5,30.34,West,270,0.0,0.0,69,0.00,CLR,,0.00,WeatherDisplay:10.37,2013-04-03 08:00:00,
2013-04-03 03:05:00,16.5,8.1,30.34,West,270,0.0,0.0,69,0.00,CLR,,0.00,WeatherDisplay:10.37,2013-04-03 08:05:00,
2013-04-03 03:10:00,16.2,8.1,30.34,West,270,0.0,0.0,70,0.00,CLR,,0.00,WeatherDisplay:10.37,2013-04-03 08:10:00,
2013-04-03 03:15:00,16.0,7.9,30.34,West,270,0.0,0.0,70,0.00,CLR,,0.00,WeatherDisplay:10.37,2013-04-03 08:15:00,
2013-04-03 03:20:00,15.6,7.6,30.34,West,270,0.0,0.0,70,0.00,CLR,,0.00,WeatherDisplay:10.37,2013-04-03 08:20:00,
2013-04-03 03:25:00,15.5,7.7,30.34,West,270,0.0,0.0,71,0.00,CLR,,0.00,WeatherDisplay:10.37,2013-04-03 08:25:00,
2013-04-03 03:30:00,15.3,7.5,30.34,West,270,0.0,0.0,71,0.00,CLR,,0.00,WeatherDisplay:10.37,2013-04-03 08:30:00,
2013-04-03 03:35:00,15.1,7.7,30.34,West,270,0.0,0.0,72,0.00,CLR,,0.00,WeatherDisplay:10.37,2013-04-03 08:35:00,
2013-04-03 03:40:00,14.9,7.5,30.34,West,270,0.0,0.0,72,0.00,CLR,,0.00,WeatherDisplay:10.37,2013-04-03 08:40:00,
2013-04-03 03:45:00,14.9,7.5,30.34,West,270,0.0,0.0,72,0.00,CLR,,0.00,WeatherDisplay:10.37,2013-04-03 08:45:00,
2013-04-03 03:50:00,14.7,7.6,30.34,West,270,0.0,0.0,73,0.00,CLR,,0.00,WeatherDisplay:10.37,2013-04-03 08:50:00,
2013-04-03 03:55:00,14.5,7.5,30.34,West,270,0.0,0.0,73,0.00,CLR,,0.00,WeatherDisplay:10.37,2013-04-03 08:55:00,
2013-04-03 04:00:00,14.2,7.1,30.34,West,270,0.0,0.0,73,0.00,CLR,,0.00,WeatherDisplay:10.37,2013-04-03 09:00:00,
2013-04-03 04:05:00,14.1,7.0,30.34,West,270,0.0,0.0,73,0.00,CLR,,0.00,WeatherDisplay:10.37,2013-04-03 09:05:00,
2013-04-03 04:10:00,13.8,6.8,30.34,West,270,0.0,0.0,73,0.00,CLR,,0.00,WeatherDisplay:10.37,2013-04-03 09:10:00,
2013-04-03 04:15:00,13.8,6.8,30.34,West,270,0.0,0.0,73,0.00,CLR,,0.00,WeatherDisplay:10.37,2013-04-03 09:15:00,
2013-04-03 04:20:00,13.8,6.8,30.34,West,270,0.0,0.0,73,0.00,CLR,,0.00,WeatherDisplay:10.37,2013-04-03 09:20:00,
2013-04-03 04:25:00,13.8,7.1,30.34,West,270,0.0,0.0,74,0.00,CLR,,0.00,WeatherDisplay:10.37,2013-04-03 09:25:00,
2013-04-03 04:30:00,13.8,7.1,30.34,West,270,0.0,0.0,74,0.00,CLR,,0.00,WeatherDisplay:10.37,2013-04-03 09:30:00,
2013-04-03 04:35:00,13.6,6.9,30.34,West,270,0.0,0.0,74,0.00,CLR,,0.00,WeatherDisplay:10.37,2013-04-03 09:35:00,
2013-04-03 04:45:00,13.6,6.9,30.34,West,270,0.0,0.0,74,0.00,CLR,,0.00,WeatherDisplay:10.37,2013-04-03 09:45:00,
2013-04-03 04:50:00,13.8,7.0,30.34,West,270,0.0,0.0,74,0.00,CLR,,0.00,WeatherDisplay:10.37,2013-04-03 09:50:00,
2013-04-03 04:55:00,13.6,6.9,30.34,West,270,0.0,0.0,74,0.00,CLR,,0.00,WeatherDisplay:10.37,2013-04-03 09:55:00,
2013-04-03 05:00:00,13.6,7.2,30.35,West,270,0.0,0.0,75,0.00,CLR,,0.00,WeatherDisplay:10.37,2013-04-03 10:00:00,
2013-04-03 05:05:00,13.3,6.8,30.35,West,270,0.0,0.0,75,0.00,CLR,,0.00,WeatherDisplay:10.37,2013-04-03 10:05:00,
2013-04-03 05:10:00,13.3,6.8,30.35,West,270,0.0,0.0,75,0.00,CLR,,0.00,WeatherDisplay:10.37,2013-04-03 10:10:00,
2013-04-03 05:15:00,13.1,6.7,30.35,West,270,0.0,0.0,75,0.00,CLR,,0.00,WeatherDisplay:10.37,2013-04-03 10:15:00,
2013-04-03 05:20:00,13.1,6.6,30.35,West,270,0.0,0.0,75,0.00,CLR,,0.00,WeatherDisplay:10.37,2013-04-03 10:20:00,
2013-04-03 05:25:00,12.8,6.3,30.35,West,270,0.0,0.0,75,0.00,CLR,,0.00,WeatherDisplay:10.37,2013-04-03 10:25:00,
2013-04-03 05:30:00,12.7,6.3,30.35,West,270,0.0,0.0,75,0.00,CLR,,0.00,WeatherDisplay:10.37,2013-04-03 10:30:00,
2013-04-03 05:35:00,12.4,6.0,30.36,West,270,0.0,0.0,75,0.00,CLR,,0.00,WeatherDisplay:10.37,2013-04-03 10:35:00,
2013-04-03 05:40:00,12.4,6.0,30.35,West,270,0.0,0.0,75,0.00,CLR,,0.00,WeatherDisplay:10.37,2013-04-03 10:40:00,
2013-04-03 05:45:00,12.2,5.8,30.35,West,270,0.0,0.0,75,0.00,CLR,,0.00,WeatherDisplay:10.37,2013-04-03 10:45:00,
2013-04-03 05:50:00,12.2,5.8,30.35,West,270,0.0,0.0,75,0.00,CLR,,0.00,WeatherDisplay:10.37,2013-04-03 10:50:00,
2013-04-03 05:55:00,12.0,5.6,30.35,West,270,0.0,0.0,75,0.00,CLR,,0.00,WeatherDisplay:10.37,2013-04-03 10:55:00,
2013-04-03 06:00:00,12.0,5.6,30.34,West,270,0.0,0.0,75,0.00,CLR,,0.00,WeatherDisplay:10.37,2013-04-03 11:00:00,
2013-04-03 06:05:00,11.8,5.4,30.35,West,270,0.0,0.0,75,0.00,CLR,,0.00,WeatherDisplay:10.37,2013-04-03 11:05:00,
2013-04-03 06:10:00,11.7,5.3,30.35,West,270,0.0,0.0,75,0.00,CLR,,0.00,WeatherDisplay:10.37,2013-04-03 11:10:00,
2013-04-03 06:15:00,11.7,5.3,30.35,West,270,0.0,0.0,75,0.00,CLR,,0.00,WeatherDisplay:10.37,2013-04-03 11:15:00,
2013-04-03 06:20:00,11.7,5.6,30.35,West,270,0.0,0.0,76,0.00,CLR,,0.00,WeatherDisplay:10.37,2013-04-03 11:20:00,
2013-04-03 06:25:00,11.5,5.4,30.35,West,270,0.0,0.0,76,0.00,CLR,,0.00,WeatherDisplay:10.37,2013-04-03 11:25:00,
2013-04-03 06:30:00,11.5,5.1,30.36,West,270,0.0,0.0,75,0.00,CLR,,0.00,WeatherDisplay:10.37,2013-04-03 11:30:00,
2013-04-03 06:35:00,11.3,4.9,30.36,West,270,0.0,0.0,75,0.00,CLR,,0.00,WeatherDisplay:10.37,2013-04-03 11:35:00,
2013-04-03 06:40:00,11.1,5.0,30.36,West,270,0.0,0.0,76,0.00,CLR,,0.00,WeatherDisplay:10.37,2013-04-03 11:40:00,
2013-04-03 06:45:00,11.1,5.0,30.36,West,270,0.0,0.0,76,0.00,CLR,,0.00,WeatherDisplay:10.37,2013-04-03 11:45:00,
2013-04-03 06:50:00,11.1,5.0,30.36,West,270,0.0,0.0,76,0.00,CLR,,0.00,WeatherDisplay:10.37,2013-04-03 11:50:00,
2013-04-03 06:55:00,11.1,5.0,30.36,West,270,0.0,0.0,76,0.00,CLR,,0.00,WeatherDisplay:10.37,2013-04-03 11:55:00,
2013-04-03 07:00:00,11.1,5.0,30.35,West,270,0.0,0.0,76,0.00,CLR,,0.00,WeatherDisplay:10.37,2013-04-03 12:00:00,
2013-04-03 07:05:00,11.1,5.0,30.36,West,270,0.0,0.0,76,0.00,CLR,,0.00,WeatherDisplay:10.37,2013-04-03 12:05:00,
2013-04-03 07:10:00,11.5,5.4,30.35,West,270,0.0,0.0,76,0.00,CLR,,0.00,WeatherDisplay:10.37,2013-04-03 12:10:00,
2013-04-03 07:15:00,11.7,5.6,30.35,West,270,0.0,0.0,76,0.00,CLR,,0.00,WeatherDisplay:10.37,2013-04-03 12:15:00,
2013-04-03 07:20:00,11.8,5.7,30.36,West,270,0.0,0.0,76,0.00,CLR,,0.00,WeatherDisplay:10.37,2013-04-03 12:20:00,
2013-04-03 07:25:00,12.2,6.1,30.35,West,270,0.0,0.0,76,0.00,CLR,,0.00,WeatherDisplay:10.37,2013-04-03 12:25:00,
2013-04-03 07:30:00,12.7,6.9,30.36,West,270,0.0,0.0,77,0.00,CLR,,0.00,WeatherDisplay:10.37,2013-04-03 12:30:00,
2013-04-03 07:35:00,13.6,8.1,30.36,West,270,0.0,0.0,78,0.00,CLR,,0.00,WeatherDisplay:10.37,2013-04-03 12:35:00,
2013-04-03 07:40:00,14.2,8.9,30.36,West,270,0.0,0.0,79,0.00,CLR,,0.00,WeatherDisplay:10.37,2013-04-03 12:40:00,
2013-04-03 07:45:00,14.9,9.3,30.36,West,270,0.0,0.0,78,0.00,CLR,,0.00,WeatherDisplay:10.37,2013-04-03 12:45:00,
2013-04-03 07:50:00,15.3,9.6,30.36,West,270,0.0,0.0,78,0.00,CLR,,0.00,WeatherDisplay:10.37,2013-04-03 12:50:00,
2013-04-03 07:55:00,15.5,9.6,30.36,West,270,0.0,0.0,77,0.00,CLR,,0.00,WeatherDisplay:10.37,2013-04-03 12:55:00,
2013-04-03 08:00:00,15.6,9.7,30.36,West,260,0.0,0.0,77,0.00,CLR,,0.00,WeatherDisplay:10.37,2013-04-03 13:00:00,
2013-04-03 08:05:00,16.0,10.0,30.36,SW,232,0.0,0.0,77,0.00,CLR,,0.00,WeatherDisplay:10.37,2013-04-03 13:05:00,
2013-04-03 08:10:00,16.7,10.7,30.36,SSW,192,0.0,0.0,77,0.00,CLR,,0.00,WeatherDisplay:10.37,2013-04-03 13:10:00,
2013-04-03 08:20:00,17.6,11.6,30.37,SSE,158,0.0,0.0,77,0.00,CLR,,0.00,WeatherDisplay:10.37,2013-04-03 13:20:00,
2013-04-03 08:25:00,17.8,11.9,30.37,SSE,158,0.0,0.0,77,0.00,CLR,,0.00,WeatherDisplay:10.37,2013-04-03 13:25:00,
2013-04-03 08:30:00,18.5,12.5,30.37,SSE,152,0.0,0.0,77,0.00,CLR,,0.00,WeatherDisplay:10.37,2013-04-03 13:30:00,
2013-04-03 08:35:00,19.1,13.1,30.37,SE,140,0.0,0.0,77,0.00,CLR,,0.00,WeatherDisplay:10.37,2013-04-03 13:35:00,
2013-04-03 08:40:00,19.6,13.5,30.37,SE,131,0.0,0.0,77,0.00,CLR,,0.00,WeatherDisplay:10.37,2013-04-03 13:40:00,
2013-04-03 08:45:00,20.3,14.2,30.37,SE,130,0.0,0.0,77,0.00,CLR,,0.00,WeatherDisplay:10.37,2013-04-03 13:45:00,
2013-04-03 08:50:00,21.0,14.6,30.37,SE,137,0.0,0.0,76,0.00,CLR,,0.00,WeatherDisplay:10.37,2013-04-03 13:50:00,
2013-04-03 08:55:00,21.7,15.3,30.38,SE,133,0.0,0.0,76,0.00,CLR,,0.00,WeatherDisplay:10.37,2013-04-03 13:55:00,
2013-04-03 09:00:00,22.3,15.9,30.38,SE,132,0.0,0.0,76,0.00,CLR,,0.00,WeatherDisplay:10.37,2013-04-03 14:00:00,
2013-04-03 09:05:00,23.0,16.2,30.37,SE,125,0.0,3.0,75,0.00,CLR,,0.00,WeatherDisplay:10.37,2013-04-03 14:05:00,
2013-04-03 09:15:00,24.4,17.3,30.37,SE,131,0.0,2.0,74,0.00,CLR,,0.00,WeatherDisplay:10.37,2013-04-03 14:15:00,
2013-04-03 09:20:00,25.0,17.2,30.37,SE,133,0.0,6.0,72,0.00,CLR,,0.00,WeatherDisplay:10.37,2013-04-03 14:20:00,
2013-04-03 09:25:00,25.9,17.8,30.38,SE,130,0.0,0.0,71,0.00,CLR,,0.00,WeatherDisplay:10.37,2013-04-03 14:25:00,
2013-04-03 09:30:00,26.4,18.0,30.38,ESE,120,2.0,6.0,70,0.00,CLR,,0.00,WeatherDisplay:10.37,2013-04-03 14:30:00,
2013-04-03 09:35:00,27.0,18.1,30.37,ESE,123,0.0,0.0,69,0.00,CLR,,0.00,WeatherDisplay:10.37,2013-04-03 14:35:00,
2013-04-03 09:40:00,28.0,18.5,30.37,SE,126,0.0,0.0,67,0.00,CLR,,0.00,WeatherDisplay:10.37,2013-04-03 14:40:00,
2013-04-03 09:45:00,28.8,19.2,30.37,SE,143,0.0,0.0,67,0.00,CLR,,0.00,WeatherDisplay:10.37,2013-04-03 14:45:00,
2013-04-03 09:50:00,29.5,19.6,30.37,SSE,153,0.0,8.0,66,0.00,CLR,,0.00,WeatherDisplay:10.37,2013-04-03 14:50:00,
2013-04-03 09:55:00,30.2,19.1,30.37,South,179,1.0,8.0,63,0.00,CLR,,0.00,WeatherDisplay:10.37,2013-04-03 14:55:00,
2013-04-03 10:00:00,30.7,19.6,30.37,South,175,2.0,2.0,63,0.00,CLR,,0.00,WeatherDisplay:10.37,2013-04-03 15:00:00,
2013-04-03 10:05:00,31.3,19.8,30.36,SE,140,3.0,8.0,62,0.00,CLR,,0.00,WeatherDisplay:10.37,2013-04-03 15:05:00,
2013-04-03 10:10:00,31.8,19.5,30.36,SE,132,2.0,8.0,60,0.00,CLR,,0.00,WeatherDisplay:10.37,2013-04-03 15:10:00,
2013-04-03 10:15:00,32.4,19.6,30.36,SE,138,7.0,7.0,59,0.00,CLR,,0.00,WeatherDisplay:10.37,2013-04-03 15:15:00,
2013-04-03 10:20:00,32.9,20.1,30.36,South,169,5.0,7.0,59,0.00,CLR,,0.00,WeatherDisplay:10.37,2013-04-03 15:20:00,
2013-04-03 10:25:00,33.6,20.8,30.36,SSE,153,0.0,2.0,59,0.00,CLR,,0.00,WeatherDisplay:10.37,2013-04-03 15:25:00,
2013-04-03 10:30:00,34.0,20.7,30.36,SSE,148,7.0,7.0,58,0.00,CLR,,0.00,WeatherDisplay:10.37,2013-04-03 15:30:00,
2013-04-03 10:35:00,34.4,20.3,30.36,SSE,156,0.0,6.0,56,0.00,CLR,,0.00,WeatherDisplay:10.37,2013-04-03 15:35:00,
2013-04-03 10:40:00,34.7,20.6,30.36,SSE,166,5.0,5.0,56,0.00,CLR,,0.00,WeatherDisplay:10.37,2013-04-03 15:40:00,
2013-04-03 10:45:00,35.4,20.8,30.36,South,170,9.0,9.0,55,0.00,CLR,,0.00,WeatherDisplay:10.37,2013-04-03 15:45:00,
2013-04-03 10:50:00,35.9,20.8,30.36,South,176,1.0,14.0,54,0.00,CLR,,0.00,WeatherDisplay:10.37,2013-04-03 15:50:00,
2013-04-03 10:55:00,36.1,21.1,30.35,South,172,9.0,14.0,54,0.00,CLR,,0.00,WeatherDisplay:10.37,2013-04-03 15:55:00,
2013-04-03 11:00:00,36.7,21.1,30.35,South,182,12.0,14.0,53,0.00,CLR,,0.00,WeatherDisplay:10.37,2013-04-03 16:00:00,
2013-04-03 11:05:00,37.0,21.0,30.35,South,191,0.0,12.0,52,0.00,CLR,,0.00,WeatherDisplay:10.37,2013-04-03 16:05:00,
2013-04-03 11:10:00,37.2,20.7,30.34,South,173,2.0,5.0,51,0.00,CLR,,0.00,WeatherDisplay:10.37,2013-04-03 16:10:00,
2013-04-03 11:20:00,37.9,21.4,30.33,SE,132,10.0,10.0,51,0.00,CLR,,0.00,WeatherDisplay:10.37,2013-04-03 16:20:00,
2013-04-03 11:25:00,38.1,21.1,30.33,SE,125,0.0,5.0,50,0.00,CLR,,0.00,WeatherDisplay:10.37,2013-04-03 16:25:00,
2013-04-03 11:30:00,38.3,20.8,30.33,ESE,113,6.0,6.0,49,0.00,CLR,,0.00,WeatherDisplay:10.37,2013-04-03 16:30:00,
2013-04-03 11:35:00,38.5,21.0,30.33,SE,125,0.0,6.0,49,0.00,CLR,,0.00,WeatherDisplay:10.37,2013-04-03 16:35:00,
2013-04-03 11:40:00,38.5,21.0,30.33,SE,128,5.0,10.0,49,0.00,CLR,,0.00,WeatherDisplay:10.37,2013-04-03 16:40:00,
2013-04-03 11:50:00,38.8,20.8,30.33,SE,143,9.0,10.0,48,0.00,CLR,,0.00,WeatherDisplay:10.37,2013-04-03 16:50:00,
2013-04-03 11:55:00,38.8,20.8,30.32,SE,135,6.0,9.0,48,0.00,CLR,,0.00,WeatherDisplay:10.37,2013-04-03 16:55:00,
2013-04-03 12:00:00,38.8,20.8,30.32,SE,134,8.0,8.0,48,0.00,CLR,,0.00,WeatherDisplay:10.37,2013-04-03 17:00:00,
2013-04-03 12:05:00,39.3,21.2,30.32,SE,138,10.0,10.0,48,0.00,CLR,,0.00,WeatherDisplay:10.37,2013-04-03 17:05:00,
2013-04-03 12:10:00,39.5,21.4,30.32,SE,137,2.0,8.0,48,0.00,CLR,,0.00,WeatherDisplay:10.37,2013-04-03 17:10:00,
2013-04-03 12:15:00,39.6,21.0,30.31,ESE,121,9.0,9.0,47,0.00,CLR,,0.00,WeatherDisplay:10.37,2013-04-03 17:15:00,
2013-04-03 12:25:00,40.0,21.4,30.31,SE,145,7.0,8.0,47,0.00,CLR,,0.00,WeatherDisplay:10.37,2013-04-03 17:25:00,
2013-04-03 12:30:00,40.3,21.1,30.30,SE,136,12.0,12.0,46,0.00,CLR,,0.00,WeatherDisplay:10.37,2013-04-03 17:30:00,
2013-04-03 12:35:00,40.6,21.4,30.29,SE,131,10.0,11.0,46,0.00,CLR,,0.00,WeatherDisplay:10.37,2013-04-03 17:35:00,
2013-04-03 12:40:00,40.6,21.4,30.29,SE,124,8.0,8.0,46,0.00,CLR,,0.00,WeatherDisplay:10.37,2013-04-03 17:40:00,
2013-04-03 12:45:00,40.8,21.6,30.28,SE,129,9.0,9.0,46,0.00,CLR,,0.00,WeatherDisplay:10.37,2013-04-03 17:45:00,
2013-04-03 12:55:00,41.2,21.9,30.30,SE,137,15.0,15.0,46,0.00,CLR,,0.00,WeatherDisplay:10.37,2013-04-03 17:55:00,
2013-04-03 13:00:00,41.4,21.6,30.29,SE,132,0.0,15.0,45,0.00,CLR,,0.00,WeatherDisplay:10.37,2013-04-03 18:00:00,
2013-04-03 13:05:00,41.5,21.8,30.29,ESE,122,7.0,7.0,45,0.00,CLR,,0.00,WeatherDisplay:10.37,2013-04-03 18:05:00,
2013-04-03 13:10:00,41.7,21.4,30.29,SE,140,13.0,14.0,44,0.00,CLR,,0.00,WeatherDisplay:10.37,2013-04-03 18:10:00,
2013-04-03 13:15:00,41.9,21.5,30.28,South,175,17.0,17.0,44,0.00,CLR,,0.00,WeatherDisplay:10.37,2013-04-03 18:15:00,
2013-04-03 13:20:00,42.0,21.6,30.29,SSE,168,10.0,15.0,44,0.00,CLR,,0.00,WeatherDisplay:10.37,2013-04-03 18:20:00,
2013-04-03 13:25:00,42.4,22.0,30.28,SSE,153,3.0,9.0,44,0.00,CLR,,0.00,WeatherDisplay:10.37,2013-04-03 18:25:00,
2013-04-03 13:30:00,42.6,22.2,30.27,SSE,155,10.0,10.0,44,0.00,CLR,,0.00,WeatherDisplay:10.37,2013-04-03 18:30:00,
2013-04-03 13:35:00,43.0,22.5,30.27,SE,134,0.0,6.0,44,0.00,CLR,,0.00,WeatherDisplay:10.37,2013-04-03 18:35:00,
2013-04-03 13:40:00,43.3,22.9,30.26,SE,139,0.0,0.0,44,0.00,CLR,,0.00,WeatherDisplay:10.37,2013-04-03 18:40:00,
2013-04-03 13:50:00,43.7,22.6,30.26,South,173,12.0,13.0,43,0.00,CLR,,0.00,WeatherDisplay:10.37,2013-04-03 18:50:00,
2013-04-03 13:55:00,43.9,22.8,30.26,South,169,6.0,13.0,43,0.00,CLR,,0.00,WeatherDisplay:10.37,2013-04-03 18:55:00,
2013-04-03 14:00:00,44.1,23.0,30.26,SSE,163,13.0,13.0,43,0.00,CLR,,0.00,WeatherDisplay:10.37,2013-04-03 19:00:00,
2013-04-03 14:05:00,44.2,23.1,30.26,South,172,6.0,12.0,43,0.00,CLR,,0.00,WeatherDisplay:10.37,2013-04-03 19:05:00,
2013-04-03 14:10:00,44.2,23.1,30.26,South,173,7.0,7.0,43,0.00,CLR,,0.00,WeatherDisplay:10.37,2013-04-03 19:10:00,
2013-04-03 14:15:00,44.4,23.3,30.26,SSE,157,7.0,7.0,43,0.00,CLR,,0.00,WeatherDisplay:10.37,2013-04-03 19:15:00,
2013-04-03 14:20:00,44.9,23.7,30.26,SSE,161,5.0,7.0,43,0.00,CLR,,0.00,WeatherDisplay:10.37,2013-04-03 19:20:00,
2013-04-03 14:25:00,45.1,23.9,30.26,SSE,166,2.0,3.0,43,0.00,CLR,,0.00,WeatherDisplay:10.37,2013-04-03 19:25:00,
2013-04-03 14:30:00,45.1,23.4,30.25,SSE,163,16.0,16.0,42,0.00,CLR,,0.00,WeatherDisplay:10.37,2013-04-03 19:30:00,
2013-04-03 14:35:00,45.1,23.4,30.25,SSE,155,5.0,9.0,42,0.00,CLR,,0.00,WeatherDisplay:10.37,2013-04-03 19:35:00,
2013-04-03 14:40:00,45.1,23.4,30.25,SSE,148,7.0,8.0,42,0.00,CLR,,0.00,WeatherDisplay:10.37,2013-04-03 19:40:00,
2013-04-03 14:45:00,45.0,23.2,30.24,SSE,152,12.0,12.0,42,0.00,CLR,,0.00,WeatherDisplay:10.37,2013-04-03 19:45:00,
2013-04-03 14:50:00,45.0,23.2,30.24,SSE,159,1.0,6.0,42,0.00,CLR,,0.00,WeatherDisplay:10.37,2013-04-03 19:50:00,
2013-04-03 14:55:00,45.1,23.4,30.24,SSE,163,14.0,14.0,42,0.00,CLR,,0.00,WeatherDisplay:10.37,2013-04-03 19:55:00,
2013-04-03 15:00:00,45.3,23.5,30.24,South,174,2.0,24.0,42,0.00,CLR,,0.00,WeatherDisplay:10.37,2013-04-03 20:00:00,
2013-04-03 15:05:00,45.3,23.0,30.23,SSE,166,12.0,15.0,41,0.00,CLR,,0.00,WeatherDisplay:10.37,2013-04-03 20:05:00,
2013-04-03 15:10:00,45.3,23.0,30.23,SSE,147,10.0,15.0,41,0.00,CLR,,0.00,WeatherDisplay:10.37,2013-04-03 20:10:00,
2013-04-03 15:15:00,45.3,23.0,30.22,SSE,162,12.0,18.0,41,0.00,CLR,,0.00,WeatherDisplay:10.37,2013-04-03 20:15:00,
2013-04-03 15:20:00,45.3,23.0,30.22,South,177,7.0,16.0,41,0.00,CLR,,0.00,WeatherDisplay:10.37,2013-04-03 20:20:00,
2013-04-03 15:25:00,45.3,23.5,30.22,SSE,166,12.0,16.0,42,0.00,CLR,,0.00,WeatherDisplay:10.37,2013-04-03 20:25:00,
2013-04-03 15:30:00,45.3,23.5,30.22,SSE,160,10.0,10.0,42,0.00,CLR,,0.00,WeatherDisplay:10.37,2013-04-03 20:30:00,
2013-04-03 15:35:00,45.3,24.1,30.21,South,174,0.0,8.0,43,0.00,CLR,,0.00,WeatherDisplay:10.37,2013-04-03 20:35:00,
2013-04-03 15:40:00,45.3,24.1,30.21,South,169,9.0,12.0,43,0.00,CLR,,0.00,WeatherDisplay:10.37,2013-04-03 20:40:00,
2013-04-03 15:45:00,45.6,24.3,30.21,SSE,163,14.0,14.0,43,0.00,CLR,,0.00,WeatherDisplay:10.37,2013-04-03 20:45:00,
2013-04-03 15:50:00,45.7,24.4,30.20,SSE,168,5.0,9.0,43,0.00,CLR,,0.00,WeatherDisplay:10.37,2013-04-03 20:50:00,
2013-04-03 15:55:00,45.7,25.0,30.20,South,169,10.0,10.0,44,0.00,CLR,,0.00,WeatherDisplay:10.37,2013-04-03 20:55:00,
2013-04-03 16:00:00,45.7,25.0,30.20,SSE,150,10.0,10.0,44,0.00,CLR,,0.00,WeatherDisplay:10.37,2013-04-03 21:00:00,
2013-04-03 16:05:00,45.9,25.2,30.19,South,172,10.0,13.0,44,0.00,CLR,,0.00,WeatherDisplay:10.37,2013-04-03 21:05:00,
2013-04-03 16:10:00,45.7,25.0,30.20,SSE,163,2.0,13.0,44,0.00,CLR,,0.00,WeatherDisplay:10.37,2013-04-03 21:10:00,
2013-04-03 16:15:00,45.7,25.0,30.19,SE,131,3.0,3.0,44,0.00,CLR,,0.00,WeatherDisplay:10.37,2013-04-03 21:15:00,
2013-04-03 16:20:00,45.7,25.0,30.19,South,179,13.0,13.0,44,0.00,CLR,,0.00,WeatherDisplay:10.37,2013-04-03 21:20:00,
2013-04-03 16:25:00,46.0,25.3,30.18,South,180,13.0,13.0,44,0.00,CLR,,0.00,WeatherDisplay:10.37,2013-04-03 21:25:00,
2013-04-03 16:30:00,46.0,25.3,30.18,South,182,8.0,15.0,44,0.00,CLR,,0.00,WeatherDisplay:10.37,2013-04-03 21:30:00,
2013-04-03 16:35:00,46.0,25.3,30.18,South,176,13.0,14.0,44,0.00,CLR,,0.00,WeatherDisplay:10.37,2013-04-03 21:35:00,
2013-04-03 16:40:00,45.7,25.0,30.18,SSE,159,13.0,13.0,44,0.00,CLR,,0.00,WeatherDisplay:10.37,2013-04-03 21:40:00,
2013-04-03 16:45:00,45.7,25.0,30.18,SSE,159,0.0,12.0,44,0.00,CLR,,0.00,WeatherDisplay:10.37,2013-04-03 21:45:00,
2013-04-03 16:50:00,45.7,25.0,30.18,South,174,12.0,12.0,44,0.00,CLR,,0.00,WeatherDisplay:10.37,2013-04-03 21:50:00,
2013-04-03 16:55:00,45.7,25.0,30.18,SSE,158,12.0,12.0,44,0.00,CLR,,0.00,WeatherDisplay:10.37,2013-04-03 21:55:00,
2013-04-03 17:00:00,45.5,24.8,30.18,SSE,154,15.0,15.0,44,0.00,CLR,,0.00,WeatherDisplay:10.37,2013-04-03 22:00:00,
2013-04-03 17:05:00,45.5,24.8,30.17,SSE,163,12.0,13.0,44,0.00,CLR,,0.00,WeatherDisplay:10.37,2013-04-03 22:05:00,
2013-04-03 17:10:00,45.5,25.4,30.17,South,178,9.0,13.0,45,0.00,CLR,,0.00,WeatherDisplay:10.37,2013-04-03 22:10:00,
2013-04-03 17:15:00,45.5,25.4,30.17,South,177,21.0,21.0,45,0.00,CLR,,0.00,WeatherDisplay:10.37,2013-04-03 22:15:00,
2013-04-03 17:20:00,45.3,25.2,30.17,SSE,167,14.0,17.0,45,0.00,CLR,,0.00,WeatherDisplay:10.37,2013-04-03 22:20:00,
2013-04-03 17:25:00,45.3,25.2,30.17,SSE,165,7.0,17.0,45,0.00,CLR,,0.00,WeatherDisplay:10.37,2013-04-03 22:25:00,
2013-04-03 17:30:00,45.3,25.7,30.16,SSE,161,1.0,14.0,46,0.00,CLR,,0.00,WeatherDisplay:10.37,2013-04-03 22:30:00,
2013-04-03 17:35:00,45.3,25.7,30.16,South,171,10.0,14.0,46,0.00,CLR,,0.00,WeatherDisplay:10.37,2013-04-03 22:35:00,
2013-04-03 17:40:00,45.3,25.7,30.16,South,176,8.0,9.0,46,0.00,CLR,,0.00,WeatherDisplay:10.37,2013-04-03 22:40:00,
2013-04-03 17:45:00,45.2,26.2,30.16,South,184,12.0,12.0,47,0.00,CLR,,0.00,WeatherDisplay:10.37,2013-04-03 22:45:00,
2013-04-03 17:50:00,45.0,25.9,30.16,South,180,3.0,11.0,47,0.00,CLR,,0.00,WeatherDisplay:10.37,2013-04-03 22:50:00,
2013-04-03 17:55:00,45.0,25.9,30.16,SSE,165,1.0,11.0,47,0.00,CLR,,0.00,WeatherDisplay:10.37,2013-04-03 22:55:00,
2013-04-03 18:00:00,45.0,26.4,30.16,South,169,7.0,7.0,48,0.00,CLR,,0.00,WeatherDisplay:10.37,2013-04-03 23:00:00,
2013-04-03 18:05:00,45.0,26.4,30.16,South,174,13.0,17.0,48,0.00,CLR,,0.00,WeatherDisplay:10.37,2013-04-03 23:05:00,
2013-04-03 18:10:00,44.8,26.3,30.15,South,181,14.0,17.0,48,0.00,CLR,,0.00,WeatherDisplay:10.37,2013-04-03 23:10:00,
2013-04-03 18:15:00,44.6,26.1,30.15,SSW,193,0.0,12.0,48,0.00,CLR,,0.00,WeatherDisplay:10.37,2013-04-03 23:15:00,
2013-04-03 18:20:00,45.0,26.9,30.15,South,181,13.0,13.0,49,0.00,CLR,,0.00,WeatherDisplay:10.37,2013-04-03 23:20:00,
2013-04-03 18:25:00,45.0,26.9,30.15,SSE,165,7.0,9.0,49,0.00,CLR,,0.00,WeatherDisplay:10.37,2013-04-03 23:25:00,
2013-04-03 18:30:00,44.6,26.6,30.15,SSE,163,1.0,10.0,49,0.00,CLR,,0.00,WeatherDisplay:10.37,2013-04-03 23:30:00,
2013-04-03 18:35:00,44.2,26.2,30.14,SSE,163,2.0,10.0,49,0.00,CLR,,0.00,WeatherDisplay:10.37,2013-04-03 23:35:00,
2013-04-03 18:40:00,43.7,26.3,30.14,South,178,14.0,14.0,50,0.00,CLR,,0.00,WeatherDisplay:10.37,2013-04-03 23:40:00,
2013-04-03 18:45:00,43.3,25.9,30.14,South,171,5.0,13.0,50,0.00,CLR,,0.00,WeatherDisplay:10.37,2013-04-03 23:45:00,
2013-04-03 18:50:00,42.6,25.7,30.14,South,170,10.0,10.0,51,0.00,CLR,,0.00,WeatherDisplay:10.37,2013-04-03 23:50:00,
2013-04-03 19:00:00,43.2,26.7,30.13,South,171,0.0,7.0,52,0.00,CLR,,0.00,WeatherDisplay:10.37,2013-04-04 00:00:00,
2013-04-03 19:05:00,43.7,26.7,30.13,South,190,6.0,13.0,51,0.00,CLR,,0.00,WeatherDisplay:10.37,2013-04-04 00:05:00,
2013-04-03 19:10:00,43.2,26.2,30.13,South,179,3.0,9.0,51,0.00,CLR,,0.00,WeatherDisplay:10.37,2013-04-04 00:10:00,
2013-04-03 19:15:00,43.0,26.1,30.12,South,176,7.0,9.0,51,0.00,CLR,,0.00,WeatherDisplay:10.37,2013-04-04 00:15:00,
2013-04-03 19:20:00,42.4,26.0,30.12,South,172,7.0,8.0,52,0.00,CLR,,0.00,WeatherDisplay:10.37,2013-04-04 00:20:00,
2013-04-03 19:25:00,41.5,25.2,30.12,SSE,159,0.0,8.0,52,0.00,CLR,,0.00,WeatherDisplay:10.37,2013-04-04 00:25:00,
2013-04-03 19:30:00,40.4,24.6,30.11,SSE,160,1.0,9.0,53,0.00,CLR,,0.00,WeatherDisplay:10.37,2013-04-04 00:30:00,
2013-04-03 19:35:00,39.7,24.8,30.11,SE,135,0.0,9.0,55,0.00,CLR,,0.00,WeatherDisplay:10.37,2013-04-04 00:35:00,
2013-04-03 19:40:00,39.0,24.2,30.11,SE,132,0.0,0.0,55,0.00,CLR,,0.00,WeatherDisplay:10.37,2013-04-04 00:40:00,
2013-04-03 19:45:00,38.5,24.1,30.11,SSE,159,0.0,6.0,56,0.00,CLR,,0.00,WeatherDisplay:10.37,2013-04-04 00:45:00,
2013-04-03 19:50:00,38.1,24.2,30.11,SSE,155,0.0,0.0,57,0.00,CLR,,0.00,WeatherDisplay:10.37,2013-04-04 00:50:00,
2013-04-03 19:55:00,37.2,23.8,30.10,SE,136,0.0,0.0,58,0.00,CLR,,0.00,WeatherDisplay:10.37,2013-04-04 00:55:00,
2013-04-03 20:00:00,36.9,23.9,30.10,SE,138,0.0,0.0,59,0.00,CLR,,0.00,WeatherDisplay:10.37,2013-04-04 01:00:00,
2013-04-03 20:05:00,36.5,23.9,30.10,SE,145,0.0,0.0,60,0.00,CLR,,0.00,WeatherDisplay:10.37,2013-04-04 01:05:00,
2013-04-03 20:10:00,36.3,24.1,30.10,SE,129,1.0,3.0,61,0.00,CLR,,0.00,WeatherDisplay:10.37,2013-04-04 01:10:00,
2013-04-03 20:15:00,36.1,24.0,30.10,ESE,123,0.0,0.0,61,0.00,CLR,,0.00,WeatherDisplay:10.37,2013-04-04 01:15:00,
2013-04-03 20:20:00,35.8,24.0,30.10,SE,137,1.0,2.0,62,0.00,CLR,,0.00,WeatherDisplay:10.37,2013-04-04 01:20:00,
2013-04-03 20:25:00,35.4,23.7,30.09,SSE,153,0.0,0.0,62,0.00,CLR,,0.00,WeatherDisplay:10.37,2013-04-04 01:25:00,
2013-04-03 20:30:00,35.3,24.0,30.09,SSE,152,0.0,0.0,63,0.00,CLR,,0.00,WeatherDisplay:10.37,2013-04-04 01:30:00,
2013-04-03 20:35:00,35.2,24.3,30.08,SSE,155,0.0,0.0,64,0.00,CLR,,0.00,WeatherDisplay:10.37,2013-04-04 01:35:00,
2013-04-03 20:40:00,35.1,24.1,30.08,SSE,165,0.0,0.0,64,0.00,CLR,,0.00,WeatherDisplay:10.37,2013-04-04 01:40:00,
2013-04-03 20:50:00,34.9,24.3,30.08,SSE,167,6.0,8.0,65,0.00,CLR,,0.00,WeatherDisplay:10.37,2013-04-04 01:50:00,
2013-04-03 20:55:00,34.9,24.7,30.08,South,171,14.0,14.0,66,0.00,CLR,,0.00,WeatherDisplay:10.37,2013-04-04 01:55:00,
2013-04-03 21:00:00,34.9,24.7,30.08,South,173,0.0,12.0,66,0.00,CLR,,0.00,WeatherDisplay:10.37,2013-04-04 02:00:00,
2013-04-03 21:05:00,34.9,24.7,30.08,South,174,3.0,5.0,66,0.00,CLR,,0.00,WeatherDisplay:10.37,2013-04-04 02:05:00,
2013-04-03 21:10:00,34.9,25.0,30.08,SSE,166,1.0,8.0,67,0.00,CLR,,0.00,WeatherDisplay:10.37,2013-04-04 02:10:00,
2013-04-03 21:15:00,34.9,25.0,30.08,SSE,168,0.0,8.0,67,0.00,CLR,,0.00,WeatherDisplay:10.37,2013-04-04 02:15:00,
2013-04-03 21:20:00,34.9,25.0,30.07,South,173,12.0,12.0,67,0.00,CLR,,0.00,WeatherDisplay:10.37,2013-04-04 02:20:00,
2013-04-03 21:25:00,34.9,25.0,30.07,South,184,1.0,11.0,67,0.00,CLR,,0.00,WeatherDisplay:10.37,2013-04-04 02:25:00,
2013-04-03 21:30:00,34.9,25.4,30.07,South,173,8.0,10.0,68,0.00,CLR,,0.00,WeatherDisplay:10.37,2013-04-04 02:30:00,
2013-04-03 21:35:00,34.9,25.4,30.06,SSE,159,5.0,7.0,68,0.00,CLR,,0.00,WeatherDisplay:10.37,2013-04-04 02:35:00,
2013-04-03 21:40:00,34.9,25.4,30.06,South,171,9.0,9.0,68,0.00,CLR,,0.00,WeatherDisplay:10.37,2013-04-04 02:40:00,
2013-04-03 21:45:00,34.9,25.4,30.07,South,179,12.0,12.0,68,0.00,CLR,,0.00,WeatherDisplay:10.37,2013-04-04 02:45:00,
2013-04-03 21:50:00,34.9,25.7,30.06,South,176,7.0,9.0,69,0.00,CLR,,0.00,WeatherDisplay:10.37,2013-04-04 02:50:00,
2013-04-03 21:55:00,34.9,25.7,30.06,South,173,10.0,10.0,69,0.00,CLR,,0.00,WeatherDisplay:10.37,2013-04-04 02:55:00,
2013-04-03 22:00:00,35.1,25.9,30.06,SSE,157,1.0,8.0,69,0.00,CLR,,0.00,WeatherDisplay:10.37,2013-04-04 03:00:00,
2013-04-03 22:05:00,35.2,26.1,30.06,South,173,9.0,9.0,69,0.00,CLR,,0.00,WeatherDisplay:10.37,2013-04-04 03:05:00,
2013-04-03 22:10:00,35.2,26.1,30.05,South,180,0.0,10.0,69,0.00,CLR,,0.00,WeatherDisplay:10.37,2013-04-04 03:10:00,
2013-04-03 22:15:00,35.3,26.2,30.05,South,177,10.0,10.0,69,0.00,CLR,,0.00,WeatherDisplay:10.37,2013-04-04 03:15:00,
2013-04-03 22:20:00,35.4,26.3,30.05,SSE,168,7.0,9.0,69,0.00,CLR,,0.00,WeatherDisplay:10.37,2013-04-04 03:20:00,
2013-04-03 22:25:00,35.4,26.3,30.05,SSE,168,7.0,9.0,69,0.00,CLR,,0.00,WeatherDisplay:10.37,2013-04-04 03:25:00,
2013-04-03 22:30:00,35.4,26.3,30.05,South,184,14.0,14.0,69,0.00,CLR,,0.00,WeatherDisplay:10.37,2013-04-04 03:30:00,
2013-04-03 22:40:00,35.8,26.9,30.04,South,180,10.0,13.0,70,0.00,CLR,,0.00,WeatherDisplay:10.37,2013-04-04 03:40:00,
2013-04-03 22:45:00,35.8,26.9,30.04,South,173,13.0,13.0,70,0.00,CLR,,0.00,WeatherDisplay:10.37,2013-04-04 03:45:00,
2013-04-03 22:55:00,35.8,26.9,30.04,South,189,0.0,7.0,70,0.00,CLR,,0.00,WeatherDisplay:10.37,2013-04-04 03:55:00,
2013-04-03 23:00:00,35.9,27.0,30.03,South,178,9.0,12.0,70,0.00,CLR,,0.00,WeatherDisplay:10.37,2013-04-04 04:00:00,
2013-04-03 23:05:00,35.8,26.9,30.03,South,182,12.0,13.0,70,0.00,CLR,,0.00,WeatherDisplay:10.37,2013-04-04 04:05:00,
2013-04-03 23:10:00,35.8,26.9,30.03,South,179,21.0,21.0,70,0.00,CLR,,0.00,WeatherDisplay:10.37,2013-04-04 04:10:00,
2013-04-03 23:15:00,36.0,27.1,30.03,South,178,9.0,9.0,70,0.00,CLR,,0.00,WeatherDisplay:10.37,2013-04-04 04:15:00,
2013-04-03 23:20:00,36.1,26.9,30.03,South,176,12.0,12.0,69,0.00,CLR,,0.00,WeatherDisplay:10.37,2013-04-04 04:20:00,
2013-04-03 23:30:00,36.3,27.1,30.02,South,182,10.0,10.0,69,0.00,CLR,,0.00,WeatherDisplay:10.37,2013-04-04 04:30:00,
2013-04-03 23:40:00,36.7,27.5,30.02,South,186,5.0,9.0,69,0.00,CLR,,0.00,WeatherDisplay:10.37,2013-04-04 04:40:00,
2013-04-03 23:45:00,36.9,27.3,30.02,South,189,9.0,9.0,68,0.00,CLR,,0.00,WeatherDisplay:10.37,2013-04-04 04:45:00,
2013-04-03 23:50:00,37.0,27.5,30.02,South,177,1.0,9.0,68,0.00,CLR,,0.00,WeatherDisplay:10.37,2013-04-04 04:50:00,
2013-04-03 23:55:00,37.0,27.5,30.01,South,174,9.0,9.0,68,0.00,CLR,,0.00,WeatherDisplay:10.37,2013-04-04 04:55:00,